Regional Weather Roundup
Issued by NWS

Home | Current Version | Previous Version | Graphics & Text | Print | Product List | Glossary On
Versions: 1 2 3 4 5 6 7 8 9 10 11 12 13 14 15 16 17 18 19 20 21 22 23 24 25 26 27 28 29 30 31 32 33 34 35 36 37 38 39 40 41 42 43 44 45 46 47 48 49 50
000
ASUS43 KLSX 092307
RWRMO

WEATHER SUMMARY FOR MISSOURI
NATIONAL WEATHER SERVICE SPRINGFIELD MO
600 PM CDT WED JUL 09 2014

NOTE: "FAIR" INDICATES FEW OR NO CLOUDS BELOW 12,000 FEET WITH NO
       SIGNIFICANT WEATHER AND/OR OBSTRUCTIONS TO VISIBILITY.
       CURRENT SKY AND/OR WEATHER CONDITIONS ARE NOT AVAILABLE FOR
       CHILLICOTHE AND FARMINGTON.

MOZ001>031-035>038-043-044-053-054-100000-
...NORTHERN AND WESTERN MISSOURI...

CITY           SKY/WX    TMP DP  RH WIND       PRES   REMARKS
KANSAS CTY INT MOSUNNY   82  58  43 NE6       30.03F
KANSAS C DTWN  SUNNY     85  61  44 N3        30.01F
LEE`S SUMMIT   SUNNY     82  60  47 NE9       30.03F
ST JOSEPH      SUNNY     82  61  48 E3        30.02F
CHILLICOTHE      N/A     83  59  44 VRB3      30.05S
KIRKSVILLE     SUNNY     79  59  50 N8        30.05F

$$
MOZ066>068-077>081-088>096-101>105-100000-
...SOUTHWEST MISSOURI...

CITY           SKY/WX    TMP DP  RH WIND       PRES   REMARKS
SPRINGFIELD    SUNNY     83  57  41 NW8       30.04F
JOPLIN         SUNNY     85  57  38 N8        30.03S

$$
MOZ032>034-039>042-045>050-055>058-069>072-100000-
...CENTRAL MISSOURI...

CITY           SKY/WX    TMP DP  RH WIND       PRES   REMARKS
COLUMBIA       MOSUNNY   82  56  40 NW12      30.04S
JEFFERSON CITY SUNNY     82  57  42 NW8       30.01F
ROLLA          SUNNY     81  58  45 NW12      30.02S
SEDALIA        SUNNY     80  64  58 N7        30.04F
WHITEMAN AFB   SUNNY     80  57  45 N8        30.03F
OSAGE BEACH    MOSUNNY   81  61  50 N7        30.02F

$$
MOZ051-052-059>065-100000-
...EAST CENTRAL MISSOURI...

CITY           SKY/WX    TMP DP  RH WIND       PRES   REMARKS
ST LOUIS INTL  MOSUNNY   82  58  43 N10       30.01R
SPIRIT OF STL  MOSUNNY   83  57  41 NW9       29.99S
ST CHARLES     SUNNY     80  59  48 N9        30.00S

$$
MOZ072>076-082>087-097>100-106>115-100000-
...SOUTH CENTRAL AND SOUTHEAST MISSOURI...

CITY           SKY/WX    TMP DP  RH WIND       PRES   REMARKS
CAPE GIRARDEAU SUNNY     86  60  41 NW9       29.97F
FARMINGTON     MOSUNNY   82  61  47 NW5       30.02F
POPLAR BLUFF   SUNNY     86  59  39 NW6       29.97F
WEST PLAINS    SUNNY     83  61  47 N5        30.05S

$$



USA.gov is the U.S. government's official web portal to all federal, state and local government web resources and services.